Location: Ipswich
(52.0579°N, 1.1528°E)
Time: 20:40:19
(UTC+01:00)

ISS - Pass Details

Date: 05 May 2026
Orbit: 414 x 424 km, 51.6° (Epoch: 15 May)

Event Time Altitude Azimuth Distance (km) Brightness Sun altitude
Exits shadow 02:18:12 73° 256° (WSW) 441 -3.9 -19.2°
Maximum altitude 02:18:29 86° 180° (S) 424 -3.9 -19.2°
Drops below altitude 10° 02:21:51 10° 92° (E) 1,500 -0.7 -19.0°
Sets 02:23:57 0° 92° (E) 2,366 0.3 -18.9°
